[[{"header":{"parameterUnit":"m.s-1","parameterCategory":1,"la1":30.2991,"la2":30.254,"lo1":-89.0895,"lo2":-89.0444,"dy":0.0017,"dx":0.0017,"nx":28,"ny":28,"refTime":"2026-02-07T03:00:00:Z","depth":0,"parameterNumber":2,"parameterNumberName":"U-component_of_WINDS"},"data":[0,0,0,0,0,0,0,0,0,0,0,0,0,0,0,0,0,0,0,0,0,0,0,0,0,0,0,0,0,0,0,0,0,0,0,0,0,0,0,0,0,0,0,0,0,0,0,0,0,0,0,0,0,0,0,0,0,0,-1.9119,-1.9119,0,-1.9086,-1.9085,-1.9085,-1.9025,-1.9024,-1.9023,-1.9022,-1.8989,-1.8989,-1.899,0,0,0,0,0,0,0,0,0,0,0,0,0,-1.9133,-1.9133,-1.9119,-1.9119,-1.9118,-1.9086,-1.9085,-1.9085,-1.9026,-1.9024,-1.9023,-1.9022,-1.8989,-1.8989,-1.899,0,0,0,0,0,0,0,0,0,0,0,0,0,-1.9116,-1.9133,-1.9119,-1.9085,-1.9081,-1.9086,-1.9085,-1.9085,-1.9026,-1.9024,-1.9022,-1.9021,-1.8989,-1.8989,-1.899,-1.9025,0,0,-1.899,-1.8991,0,0,0,0,0,0,0,0,-1.9117,-1.9116,-1.909,-1.9087,-1.9083,-1.9058,-1.9078,-1.9065,-1.9026,-1.9047,-1.9022,-1.902,-1.9014,-1.9012,-1.9009,-1.9024,-1.9022,-1.899,-1.8991,-1.8991,-1.8991,0,0,0,0,0,0,0,-1.9118,-1.9117,-1.9106,-1.909,-1.9086,-1.9071,-1.9067,-1.9075,-1.904,-1.9045,-1.9041,-1.9037,-1.9011,-1.9009,-1.9008,-1.9022,-1.899,-1.8991,-1.8991,-1.8991,-1.9064,-1.9065,0,0,0,0,0,0,-1.9124,-1.9118,-1.9107,-1.9105,-1.9096,-1.9073,-1.9068,-1.9068,-1.904,-1.9034,-1.9039,-1.9035,-1.9009,-1.9008,-1.9007,-1.9045,-1.8991,-1.8991,-1.8991,-1.9062,-1.9064,-1.9066,0,0,0,0,0,0,-1.9125,-1.9124,-1.9108,-1.911,-1.9107,-1.9074,-1.9075,-1.9068,-1.9066,-1.9035,-1.9029,-1.9043,-1.9008,-1.9006,-1.9021,-1.9043,-1.8991,-1.8991,-1.906,-1.9063,-1.9065,-1.9124,0,0,0,0,0,0,-1.9126,-1.9124,-1.9137,-1.9111,-1.9107,-1.9123,-1.9076,-1.9069,-1.9066,-1.906,-1.9037,-1.9032,-1.9007,-1.9021,-1.9021,-1.9043,-1.8992,-1.9058,-1.9061,-1.9064,-1.912,-1.9129,-1.9136,0,0,0,0,0,-1.9126,-1.9156,-1.9138,-1.9137,-1.9123,-1.9124,-1.9122,-1.9092,-1.9068,-1.9081,-1.9062,-1.9033,-1.9042,-1.9023,-1.9023,-1.9045,-1.9056,-1.906,-1.9064,-1.9117,-1.9127,-1.9136,0,0,0,0,0,0,-1.9186,-1.9152,-1.9132,-1.9154,-1.9142,-1.9114,-1.9129,-1.9104,-1.9099,-1.9094,-1.9058,-1.9053,-1.9072,-1.906,-1.904,-1.9078,-1.9044,-1.9048,-1.9084,-1.9094,-1.9102,-1.9103,-1.8992,0,0,0,0,0,-1.9202,-1.9206,-1.9176,-1.9198,-1.9193,-1.9163,-1.9162,-1.914,-1.9127,-1.9122,-1.9103,-1.9092,-1.9092,-1.9093,-1.9091,-1.9119,-1.9113,-1.9134,-1.9142,-1.9149,-1.9152,-1.9165,-1.9174,-1.9079,-1.9079,-1.9079,0,0,-1.9234,-1.9216,-1.9221,-1.921,-1.9198,-1.9203,-1.9159,-1.9166,-1.9169,-1.9123,-1.9135,-1.9121,-1.9106,-1.9127,-1.9136,-1.9118,-1.9178,-1.9154,-1.916,-1.9159,-1.917,-1.9179,-1.9187,-1.9082,-1.9081,-1.9081,0,0,-1.9295,-1.9283,-1.9299,-1.9289,-1.9272,-1.9251,-1.9255,-1.9231,-1.922,-1.9232,-1.9197,-1.9201,-1.9202,-1.9192,-1.9187,-1.9246,-1.9219,-1.9247,-1.9287,-1.93,-1.9307,-1.9314,-1.9333,-1.9341,-1.9251,-1.9251,-1.9251,0,-1.9338,-1.9343,-1.9311,-1.932,-1.9316,-1.9274,-1.9291,-1.9282,-1.9266,-1.9264,-1.9245,-1.9245,-1.9232,-1.925,-1.9264,-1.9262,-1.9265,-1.9248,-1.9309,-1.9315,-1.9321,-1.9339,-1.9346,-1.9254,-1.9254,-1.9253,-1.9253,0,-1.9396,-1.94,-1.9416,-1.94,-1.9398,-1.9411,-1.9381,-1.9383,-1.9362,-1.9343,-1.9356,-1.9339,-1.9333,-1.9336,-1.9315,-1.9351,-1.934,-1.9316,-1.9281,-1.9334,-1.935,-1.9356,-1.9259,-1.9258,-1.9257,-1.9256,0,0,-1.9492,-1.9459,-1.9465,-1.9457,-1.9436,-1.9438,-1.945,-1.9443,-1.9445,-1.9436,-1.9444,-1.9446,-1.9423,-1.9418,-1.9396,-1.9408,-1.9454,-1.9382,-1.9381,-1.9394,-1.949,-1.9507,-1.9516,-1.9437,-1.9438,-1.9439,-1.9491,0,-1.9547,-1.9563,-1.9535,-1.9557,-1.9561,-1.9522,-1.9532,-1.952,-1.9504,-1.9504,-1.9487,-1.9488,-1.9459,-1.9455,-1.9465,-1.9446,-1.9472,-1.9442,-1.9443,-1.9443,-1.9445,-1.9524,-1.9542,-1.9592,-1.9497,-1.9498,-1.9499,0,-1.9612,-1.9606,-1.9629,-1.9606,-1.9606,-1.9615,-1.9607,-1.9608,-1.9594,-1.9582,-1.9576,-1.955,-1.956,-1.9528,-1.954,-1.952,-1.9519,-1.951,-1.9511,-1.9508,-1.9473,-1.9522,-1.9607,-1.9614,-1.9509,-1.9508,-1.9507,0,-1.9678,-1.9675,-1.9688,-1.9683,-1.9657,-1.9664,-1.9654,-1.9638,-1.9636,-1.9629,-1.9627,-1.9622,-1.9619,-1.9616,-1.9589,-1.9569,-1.9604,-1.957,-1.9593,-1.9594,-1.96,-1.96,-1.9685,-1.9604,-1.9604,-1.9603,-1.9603,0,-1.9741,-1.9756,-1.9717,-1.9725,-1.9741,-1.9709,-1.9726,-1.9712,-1.9698,-1.9702,-1.967,-1.9675,-1.964,-1.9642,-1.9622,-1.9634,-1.9633,-1.9623,-1.9617,-1.9624,-1.9626,-1.9622,-1.9617,-1.9605,-1.9605,-1.9605,-1.9604,0,-1.9816,-1.979,-1.9802,-1.9776,-1.977,-1.9783,-1.9761,-1.9767,-1.975,-1.9756,-1.9755,-1.9727,-1.9727,-1.9701,-1.9696,-1.9682,-1.9702,-1.9691,-1.9707,-1.9702,-1.9726,-1.9723,-1.9809,-1.9818,-1.9734,-1.9734,-1.9735,0,-1.9857,-1.9867,-1.9843,-1.9843,-1.9834,-1.9836,-1.9833,-1.9803,-1.9802,-1.9787,-1.9795,-1.9792,-1.9788,-1.979,-1.9769,-1.9764,-1.9752,-1.9782,-1.9751,-1.9758,-1.975,-1.9748,-1.9749,-1.9788,-1.9789,-1.979,-1.9791,0,-1.9931,-1.9918,-1.9916,-1.9909,-1.9907,-1.99,-1.9891,-1.9894,-1.986,-1.9861,-1.986,-1.9857,-1.9851,-1.9849,-1.9841,-1.983,-1.9805,-1.9801,-1.9806,-1.9813,-1.982,-1.9815,-1.9722,-1.9799,-1.9798,-1.9797,-1.9797,-1.9797,-1.9989,-1.9996,-1.998,-1.9978,-1.9969,-1.9961,-1.9965,-1.9948,-1.9947,-1.9939,-1.9922,-1.9924,-1.9909,-1.9896,-1.9888,-1.9889,-1.9873,-1.9881,-1.9882,-1.9884,-1.9887,-1.9822,-1.9887,-1.9887,-1.9887,-1.9887,-1.9887,0,-2.006,-2.0048,-2.0047,-2.0035,-2.0034,-2.0011,-2.0,-2.0,-2.0002,-1.9991,-1.9988,-1.9987,-1.9984,-1.9963,-1.9958,-1.9963,-1.9951,-1.9962,-1.996,-1.9958,-1.9902,-1.9898,-1.9972,-1.9972,-1.9972,-1.9972,-1.9972,-1.9972,-2.0097,-2.0108,-2.0093,-2.0098,-2.0086,-2.0087,-2.0083,-2.0076,-2.0066,-2.0066,-2.0064,-2.005,-2.0035,-2.0029,-2.0025,-2.0019,-2.0018,-2.0033,-2.0023,-1.9971,-1.9962,-1.9954,-1.995,-2.0034,-2.0034,-2.0078,-2.0079,-2.0079]},{"header":{"parameterUnit":"m.s-1","parameterCategory":1,"la1":30.2991,"la2":30.254,"lo1":-89.0895,"lo2":-89.0444,"dy":0.0017,"dx":0.0017,"nx":28,"ny":28,"refTime":"2026-02-07T03:00:00:Z","depth":0,"parameterNumber":3,"parameterNumberName":"V-component_of_WINDS"},"data":[0,0,0,0,0,0,0,0,0,0,0,0,0,0,0,0,0,0,0,0,0,0,0,0,0,0,0,0,0,0,0,0,0,0,0,0,0,0,0,0,0,0,0,0,0,0,0,0,0,0,0,0,0,0,0,0,0,0,1.1578,1.1579,0,1.1633,1.1633,1.1634,1.1684,1.1685,1.1685,1.1686,1.1741,1.1742,1.1743,0,0,0,0,0,0,0,0,0,0,0,0,0,1.1518,1.1519,1.1578,1.1579,1.1579,1.1633,1.1633,1.1634,1.1684,1.1685,1.1686,1.1686,1.1741,1.1742,1.1743,0,0,0,0,0,0,0,0,0,0,0,0,0,1.1555,1.1519,1.1578,1.1611,1.1614,1.1632,1.1633,1.1634,1.1684,1.1685,1.1686,1.1687,1.1741,1.1742,1.1743,1.1733,0,0,1.1747,1.1748,0,0,0,0,0,0,0,0,1.1553,1.1558,1.1605,1.1608,1.1612,1.1653,1.1633,1.1667,1.1684,1.1657,1.1686,1.1687,1.1711,1.1715,1.1723,1.1736,1.1738,1.1748,1.1748,1.1749,1.1749,0,0,0,0,0,0,0,1.1551,1.1555,1.16,1.1606,1.161,1.1623,1.1629,1.1639,1.1678,1.166,1.1664,1.1669,1.1713,1.1722,1.1725,1.1739,1.1748,1.1749,1.175,1.175,1.175,1.1749,0,0,0,0,0,0,1.1543,1.1553,1.1598,1.1601,1.1584,1.1623,1.1631,1.1639,1.1678,1.1685,1.1669,1.1672,1.1719,1.1723,1.1727,1.172,1.1749,1.175,1.1751,1.1751,1.175,1.1749,0,0,0,0,0,0,1.1541,1.1546,1.1596,1.1578,1.1585,1.1624,1.1632,1.1639,1.1648,1.1685,1.1692,1.167,1.172,1.1725,1.1732,1.1722,1.1751,1.1752,1.1752,1.175,1.1749,1.1704,0,0,0,0,0,0,1.1539,1.1546,1.1542,1.1578,1.1586,1.1599,1.1632,1.164,1.165,1.1655,1.1688,1.1695,1.1721,1.173,1.1733,1.1725,1.1753,1.1753,1.1751,1.175,1.1707,1.1702,1.1697,0,0,0,0,0,1.1537,1.1526,1.1541,1.1546,1.1582,1.1599,1.1604,1.1634,1.1649,1.1646,1.1671,1.1694,1.1723,1.173,1.1735,1.1726,1.1753,1.1752,1.175,1.1709,1.1703,1.1698,0,0,0,0,0,0,1.1487,1.1531,1.1548,1.1549,1.157,1.1607,1.1604,1.1626,1.1643,1.1646,1.1683,1.169,1.1694,1.1711,1.1718,1.172,1.1742,1.174,1.1709,1.1703,1.1699,1.1695,1.1754,0,0,0,0,0,1.1476,1.1485,1.1524,1.152,1.153,1.1565,1.1573,1.1595,1.1618,1.1627,1.1652,1.1674,1.1688,1.1697,1.1712,1.171,1.1719,1.1707,1.1702,1.1698,1.1696,1.1699,1.1695,1.1743,1.1743,1.1743,0,0,1.1453,1.1478,1.1482,1.1511,1.153,1.154,1.1572,1.158,1.1589,1.1629,1.1638,1.1657,1.1683,1.1687,1.1689,1.1701,1.1686,1.1695,1.1692,1.1693,1.1697,1.1692,1.1688,1.1742,1.1742,1.1742,0,0,1.1417,1.1436,1.1437,1.1455,1.1484,1.1508,1.1508,1.1543,1.1557,1.1567,1.1598,1.1609,1.1632,1.165,1.1663,1.1637,1.166,1.1641,1.1616,1.1618,1.1614,1.1611,1.1604,1.16,1.1639,1.1639,1.1639,0,1.1384,1.14,1.1434,1.1441,1.1454,1.1492,1.1494,1.151,1.1542,1.155,1.1563,1.1595,1.1615,1.1625,1.1619,1.1627,1.1629,1.1637,1.1612,1.1609,1.1607,1.16,1.1597,1.1637,1.1637,1.1637,1.1637,0,1.1361,1.1371,1.1368,1.14,1.1412,1.1416,1.1451,1.146,1.1481,1.1504,1.1515,1.1541,1.1563,1.1567,1.1587,1.158,1.1587,1.1605,1.1627,1.16,1.1594,1.1592,1.1633,1.1634,1.1635,1.1635,0,0,1.1293,1.1344,1.1343,1.1358,1.1394,1.1403,1.141,1.1433,1.144,1.1461,1.1469,1.149,1.1508,1.1522,1.1545,1.1547,1.1528,1.1566,1.1567,1.1559,1.1524,1.151,1.1506,1.1543,1.1543,1.1542,1.1522,0,1.1263,1.1278,1.131,1.1315,1.1326,1.1364,1.137,1.1393,1.1415,1.1429,1.1454,1.1468,1.149,1.1499,1.1503,1.1529,1.1521,1.1531,1.1552,1.1552,1.1544,1.1503,1.1489,1.1468,1.152,1.1519,1.1519,0,1.1231,1.1251,1.1257,1.1295,1.1301,1.1306,1.1331,1.1343,1.1371,1.1387,1.1404,1.143,1.1441,1.1461,1.1478,1.1484,1.1494,1.1509,1.1509,1.1512,1.1534,1.1507,1.1462,1.1459,1.1516,1.1516,1.1516,0,1.1183,1.1211,1.122,1.1232,1.1275,1.1278,1.1297,1.1325,1.1338,1.136,1.1368,1.1391,1.1403,1.142,1.1453,1.1464,1.1466,1.1488,1.1481,1.148,1.148,1.1479,1.1437,1.1485,1.1485,1.1485,1.1485,0,1.1147,1.115,1.1199,1.1204,1.1209,1.1246,1.1251,1.1272,1.1298,1.1309,1.1343,1.1352,1.1394,1.1409,1.1434,1.1445,1.145,1.1464,1.1471,1.1462,1.146,1.1469,1.1472,1.1484,1.1484,1.1485,1.1485,0,1.1094,1.1127,1.1139,1.118,1.119,1.1192,1.1228,1.1235,1.126,1.1273,1.1279,1.1318,1.1338,1.1372,1.14,1.1418,1.1424,1.1435,1.1415,1.1419,1.141,1.1411,1.1373,1.1371,1.1419,1.1418,1.1418,0,1.1069,1.1073,1.1114,1.1125,1.1142,1.1157,1.1171,1.1208,1.1221,1.1254,1.1258,1.128,1.13,1.133,1.1361,1.1384,1.1397,1.1382,1.14,1.1392,1.1398,1.1398,1.14,1.1377,1.1377,1.1376,1.1376,0,1.1023,1.104,1.1058,1.1082,1.1098,1.1118,1.1141,1.1148,1.119,1.1203,1.1224,1.1239,1.127,1.1293,1.1321,1.1341,1.1366,1.137,1.137,1.136,1.1349,1.1357,1.1404,1.137,1.1371,1.1371,1.1372,1.1372,1.0984,1.099,1.1021,1.1041,1.1062,1.1083,1.1093,1.112,1.1138,1.1166,1.1187,1.1207,1.1237,1.1278,1.1296,1.1313,1.1324,1.1323,1.1324,1.1323,1.132,1.1346,1.1318,1.1318,1.1319,1.1319,1.1319,0,1.0941,1.0963,1.0981,1.1013,1.1029,1.1052,1.1079,1.1091,1.1108,1.1134,1.1154,1.1179,1.1201,1.1236,1.1261,1.1268,1.1281,1.1274,1.1274,1.1279,1.1308,1.1306,1.1264,1.1264,1.1264,1.1264,1.1264,1.1264,1.092,1.0932,1.0953,1.0976,1.0999,1.1019,1.1033,1.1053,1.1074,1.1101,1.112,1.1143,1.1173,1.1201,1.1224,1.1233,1.1242,1.1232,1.1245,1.1271,1.1276,1.1281,1.128,1.1233,1.1233,1.1215,1.1215,1.1215]}]]